Weather in Krasnoye Ekho

Russia / Vladimir Oblast     55°47′29″N   40°42′18″E
В апреле 2022 года жителям России запретили посещать сайт meteo.paraplan.net по решению Генеральной прокуратуры. Аудитория сайта уменьшилась в 10 раз. Владельцы сайта не видят смысла в поддержке погодного сервера в таких условиях. Сайт будет закрыт в октябре.
temp.,
°C
wind,
m/s
gust,
m/s
humid.,
%
clouds,
%
prec.,
mm/h
press.,
hPa
HPBL,
m
4 october, tue
tue400:00+10sse6148018 0.0 1009896
03:00+9sse514865 0.0 1010678
06:00+9sse615831 0.0 1011677
09:00+11sse614715 0.0 1011885
12:00+15sse6145920 0.0 10121765
15:00+14sse61267100 0.4 10121570
18:00+11sse51386100 1.8 10121128
21:00+11sse61388100 2.5 10111074
5 october, wed
wed500:00+10ssw3892100 1.1 1012655
03:00+9s5118670 1.2 1012855
06:00+8s51086100 0.2 10121116
09:00+8s5991100 1.0 10111161
12:00+8ssw4886100 0.9 10121091
15:00+7sw3790100 1.8 10121011
18:00+6w2589100 0.8 1014305
21:00+5wsw279077 1.6 1014415
6 october, thu
thu600:00+5w3694100 0.1 1015553
03:00+5w379194 0.3 1015707
06:00+5w3895100 0.0 1016385
09:00+6w3890100 0.1 1017426
12:00+9wnw457338 0.0 1018964
15:00+10w3564100 0.1 1018847
18:00+7sw23835 0.0 101947
21:00+5ssw38911 0.0 1019159
7 october, fri
fri700:00+7ssw3109098 0.0 1018305
03:00+8ssw41097100 0.0 1016364
06:00+9wsw4129599 0.0 1015489
09:00+10w4129379 0.3 1016693
12:00+14wnw69662 0.1 10181300
15:00+12wnw5106760 0.1 10201350
18:00+11wnw5961100 0.0 10221052
21:00+8w310780 0.0 1024334
8 october, sat
sat800:00+6wsw39930 0.0 1025215
03:00+6wsw28964 0.0 1025179
06:00+5sw38965 0.0 1025190
09:00+8wsw488270 0.0 1025336
12:00+13sw476243 0.0 1024763
15:00+14sw476046 0.0 1022880
18:00+9ssw3984100 0.0 1022245
21:00+9ssw4138676 0.0 1021395